Terug naar catalogus

STARLINK-30286

ActiefCommunicatieVLEO
NORAD 57647·PAYLOAD·🇺🇸 United States

Gelanceerd Aug 17, 2023 vanaf Cape Canaveral Space Force Station

Loading…

Volgende Passages (komende 24 uur)

TLE

VersSource: CelesTrak SupGP

Epoch: Sep 15, 2026, 03:06 UTC

1 57647C 23122R   26258.12965278  .00014890  00000+0  53923-3 0  2586
2 57647  43.0013 102.5213 0001454 271.4503 346.5281 15.27576185    19

Volg STARLINK-30286 in realtime met AllMySat

Download on the App Store